Lowpoint, Illinois
Current Conditions -  °F | °C
As of 8:15 PM on Thursday 20 Nov 2014 (Local Time) from KC75 Reporting Station
Clear Clear  
Wind Chill: 10°   Ceiling: Unl
Heat Index: 18°   Visibility: 10mi
Dew Point:   Wind: 6mph
Humidity: 61%   Direction: 320°NW
Pressure: 30.28"   Gusts: NA
Location:  40.87°N, 89.35°W
Report Text: KC75 210215Z AUTO 32005KT 10SM CLR M08/M14 A3028 RMK AO2 T10761140
Loading
Personal Weather Stations






























Interactive Weather Map New forecast layout! Learn more

10-Day Weather Forecast

Advertisements
Track Severe Weather on mobile